Location: ??????
(38.3184°N, 23.6932°E)
Time: 01:26:40
(UTC+00:00)

Cosmos 2082 - Pass Details

Date: 16 October 2021
Orbit: 835 x 853 km, 71.0° (Epoch: 04 December)

Event Time Altitude Azimuth Distance (km) Brightness Sun altitude
Rises 16:27:33 0° 343° (NNW) 3,391 7.0 -8.9°
Reaches altitude 10° 16:30:06 10° 349° (NNW) 2,453 6.2 -9.4°
Maximum altitude 16:35:31 48° 63° (ENE) 1,083 3.9 -10.5°
Drops below altitude 10° 16:40:55 10° 137° (SE) 2,441 5.7 -11.6°
Sets 16:43:26 0° 143° (SE) 3,373 6.5 -12.0°
